[[{"header":{"parameterUnit":"m.s-1","parameterCategory":1,"la1":30.2991,"la2":30.254,"lo1":-89.0895,"lo2":-89.0444,"dy":0.0017,"dx":0.0017,"nx":28,"ny":28,"refTime":"2024-06-07T03:00:00:Z","depth":0,"parameterNumber":2,"parameterNumberName":"U-component_of_WINDS"},"data":[0,0,0,0,0,0,0,0,0,0,0,0,0,0,0,0,0,0,0,0,0,0,0,0,0,0,0,0,0,0,0,0,0,0,0,0,0,0,0,0,0,0,0,0,0,0,0,0,0,0,0,0,0,0,0,0,0,0,1.0097,1.0098,0,1.0246,1.0248,1.0249,1.0221,1.0219,1.0216,1.0213,1.0369,1.0375,1.0382,0,0,0,0,0,0,0,0,0,0,0,0,0,0.9789,0.9795,1.0097,1.0099,1.01,1.0246,1.0248,1.025,1.0222,1.0218,1.0215,1.0212,1.0367,1.0374,1.0382,0,0,0,0,0,0,0,0,0,0,0,0,0,0.9929,0.9796,1.0096,1.0104,1.0106,1.0245,1.0248,1.025,1.0222,1.0218,1.0214,1.0211,1.0364,1.0374,1.0384,1.0525,0,0,1.0414,1.0418,0,0,0,0,0,0,0,0,0.9921,0.994,1.0101,1.0104,1.0106,1.0211,1.0196,1.0343,1.0223,1.0178,1.0213,1.0209,1.032,1.0333,1.037,1.0533,1.0539,1.0415,1.0421,1.0425,1.0428,0,0,0,0,0,0,0,0.9911,0.9934,1.0156,1.0103,1.0107,1.01,1.0116,1.0224,1.027,1.0182,1.018,1.0198,1.032,1.036,1.0373,1.0542,1.0415,1.0423,1.043,1.0433,1.0828,1.0832,0,0,0,0,0,0,0.9899,0.9926,1.0151,1.016,1.0002,1.0109,1.0126,1.0181,1.0269,1.0278,1.0201,1.0196,1.0345,1.0362,1.0379,1.0551,1.0425,1.0434,1.044,1.0823,1.0829,1.0834,0,0,0,0,0,0,0.9892,0.9919,1.0145,1.0043,1.0071,1.0119,1.0181,1.0186,1.0226,1.0283,1.0291,1.0234,1.0343,1.0365,1.0489,1.0556,1.0439,1.0448,1.0818,1.0825,1.0831,1.0895,0,0,0,0,0,0,0.9884,0.9917,0.9971,1.0044,1.0076,1.0252,1.0185,1.0192,1.0243,1.0238,1.0316,1.0325,1.0341,1.0474,1.0499,1.0567,1.0456,1.0812,1.0821,1.0829,1.0888,1.0903,1.0917,0,0,0,0,0,0.9873,0.9984,0.9974,1.0001,1.0145,1.0256,1.0275,1.0291,1.0249,1.0304,1.034,1.0322,1.0544,1.0487,1.0515,1.0587,1.0808,1.0819,1.0829,1.0881,1.09,1.0917,0,0,0,0,0,0,0.9919,0.9994,0.9984,1.0121,1.0183,1.0251,1.0321,1.0311,1.0386,1.0378,1.0395,1.0413,1.0539,1.0575,1.0511,1.0729,1.067,1.0686,1.0701,1.072,1.0734,1.0723,1.0464,0,0,0,0,0,0.9944,1.0028,1.0089,1.0205,1.0236,1.0273,1.0323,1.0329,1.0394,1.042,1.0465,1.0529,1.0613,1.0668,1.0749,1.0892,1.0909,1.0955,1.097,1.0982,1.0996,1.1075,1.1096,1.0867,1.0867,1.0867,0,0,0.9999,1.0051,1.0103,1.0216,1.0264,1.035,1.0296,1.039,1.0454,1.0434,1.0554,1.059,1.0662,1.0796,1.0858,1.083,1.1063,1.0995,1.1004,1.1012,1.1087,1.1109,1.1128,1.0874,1.0873,1.0872,0,0,1.0144,1.0191,1.0292,1.0341,1.0415,1.0439,1.0463,1.0534,1.0556,1.0676,1.0663,1.074,1.0885,1.0937,1.0982,1.1145,1.1131,1.1171,1.1248,1.1325,1.1343,1.1359,1.1417,1.1438,1.1184,1.1184,1.1184,0,1.0203,1.0332,1.0346,1.0441,1.0492,1.0476,1.058,1.0627,1.0723,1.0758,1.0725,1.0906,1.0953,1.11,1.1139,1.1176,1.1205,1.1162,1.1339,1.1355,1.137,1.1426,1.1448,1.1189,1.1188,1.1188,1.1187,0,1.0402,1.0492,1.0565,1.0657,1.0716,1.0815,1.0843,1.0901,1.0902,1.093,1.1052,1.1109,1.12,1.1235,1.1238,1.1382,1.1363,1.1334,1.1276,1.1396,1.1449,1.1471,1.1195,1.1193,1.1192,1.1191,0,0,1.058,1.0678,1.0705,1.0746,1.0826,1.0896,1.0994,1.1082,1.1131,1.1198,1.1281,1.1403,1.1377,1.1428,1.1437,1.1503,1.1629,1.1467,1.1469,1.1496,1.1792,1.1813,1.1837,1.162,1.1624,1.1628,1.1786,0,1.0732,1.0904,1.0919,1.1075,1.1158,1.1144,1.123,1.1288,1.1316,1.1391,1.1422,1.1508,1.1468,1.1498,1.1564,1.16,1.1689,1.1589,1.1698,1.1702,1.1681,1.1865,1.1888,1.2034,1.1806,1.181,1.1812,0,1.0932,1.1004,1.1168,1.1235,1.1271,1.1347,1.1429,1.1501,1.1567,1.1582,1.1639,1.1639,1.174,1.1677,1.1817,1.1748,1.1794,1.1818,1.1824,1.1836,1.1765,1.1882,1.2082,1.2104,1.1845,1.1842,1.184,0,1.1046,1.1184,1.1299,1.1335,1.1417,1.1471,1.1508,1.1569,1.1621,1.1693,1.1727,1.181,1.1856,1.192,1.1942,1.1894,1.2081,1.202,1.2097,1.2097,1.2138,1.2136,1.2348,1.2167,1.2166,1.2166,1.2165,0,1.1214,1.1315,1.1351,1.1423,1.1535,1.1551,1.1662,1.1696,1.1751,1.1828,1.1822,1.1895,1.1918,1.1996,1.2013,1.2127,1.2147,1.2163,1.2167,1.2164,1.2163,1.2195,1.2186,1.2172,1.217,1.2169,1.2168,0,1.1361,1.1389,1.1514,1.1581,1.16,1.168,1.1737,1.1806,1.1832,1.1931,1.1955,1.1997,1.2087,1.2115,1.2225,1.2236,1.2369,1.2363,1.2347,1.2347,1.2423,1.2416,1.2665,1.2699,1.2494,1.2496,1.2498,0,1.1467,1.1544,1.1619,1.167,1.1709,1.1791,1.1844,1.1863,1.1918,1.1999,1.2058,1.2147,1.222,1.2365,1.2406,1.249,1.2486,1.2568,1.2499,1.2494,1.2488,1.2483,1.2491,1.2581,1.2583,1.2585,1.2586,0,1.1651,1.1662,1.1738,1.182,1.1883,1.1948,1.2011,1.2054,1.2081,1.2144,1.2236,1.2293,1.2404,1.2493,1.2578,1.2615,1.2606,1.2607,1.263,1.2628,1.2616,1.2624,1.2383,1.2602,1.26,1.2599,1.2598,1.2598,1.1781,1.1849,1.1912,1.1998,1.2047,1.2106,1.2173,1.2208,1.2285,1.2377,1.2383,1.2483,1.2547,1.2659,1.2702,1.278,1.2757,1.2789,1.2797,1.2805,1.2812,1.2603,1.2796,1.2795,1.2795,1.2795,1.2794,0,1.1966,1.2006,1.2084,1.2172,1.2239,1.2223,1.2292,1.235,1.2437,1.2497,1.2569,1.2675,1.2761,1.2808,1.2894,1.2948,1.2945,1.297,1.2966,1.2975,1.2828,1.28,1.297,1.297,1.297,1.297,1.297,1.297,1.207,1.2184,1.2201,1.234,1.2379,1.2477,1.2517,1.2572,1.2619,1.2738,1.2809,1.2839,1.2894,1.2984,1.3062,1.3074,1.3106,1.3133,1.3142,1.3004,1.2986,1.2968,1.2942,1.314,1.314,1.3283,1.3284,1.3285]},{"header":{"parameterUnit":"m.s-1","parameterCategory":1,"la1":30.2991,"la2":30.254,"lo1":-89.0895,"lo2":-89.0444,"dy":0.0017,"dx":0.0017,"nx":28,"ny":28,"refTime":"2024-06-07T03:00:00:Z","depth":0,"parameterNumber":3,"parameterNumberName":"V-component_of_WINDS"},"data":[0,0,0,0,0,0,0,0,0,0,0,0,0,0,0,0,0,0,0,0,0,0,0,0,0,0,0,0,0,0,0,0,0,0,0,0,0,0,0,0,0,0,0,0,0,0,0,0,0,0,0,0,0,0,0,0,0,0,2.0969,2.0969,0,2.095,2.0949,2.0949,2.0925,2.0925,2.0925,2.0924,2.0903,2.0903,2.0903,0,0,0,0,0,0,0,0,0,0,0,0,0,2.0984,2.0984,2.0969,2.0969,2.0969,2.095,2.0949,2.0949,2.0926,2.0925,2.0925,2.0924,2.0903,2.0903,2.0903,0,0,0,0,0,0,0,0,0,0,0,0,0,2.0972,2.0984,2.0969,2.0955,2.0953,2.095,2.0949,2.0949,2.0926,2.0925,2.0925,2.0924,2.0903,2.0903,2.0903,2.0912,0,0,2.0902,2.0901,0,0,0,0,0,0,0,0,2.0973,2.0972,2.0957,2.0956,2.0954,2.0939,2.0947,2.0936,2.0926,2.0936,2.0924,2.0924,2.0916,2.0914,2.0912,2.0911,2.091,2.0902,2.0901,2.0901,2.0901,0,0,0,0,0,0,0,2.0974,2.0973,2.0961,2.0957,2.0955,2.0948,2.0946,2.0945,2.0929,2.0935,2.0933,2.0931,2.0915,2.0912,2.0911,2.0909,2.0902,2.0901,2.0901,2.0901,2.0913,2.0913,0,0,0,0,0,0,2.0977,2.0973,2.0962,2.0961,2.0962,2.0949,2.0946,2.0945,2.0929,2.0926,2.0932,2.093,2.0913,2.0911,2.091,2.0919,2.0901,2.0901,2.0901,2.0912,2.0913,2.0913,0,0,0,0,0,0,2.0978,2.0976,2.0963,2.0967,2.0964,2.0949,2.0948,2.0945,2.0942,2.0927,2.0924,2.0932,2.0912,2.0911,2.0911,2.0918,2.0901,2.09,2.0912,2.0912,2.0913,2.0937,0,0,0,0,0,0,2.0978,2.0977,2.0981,2.0967,2.0964,2.0965,2.0948,2.0945,2.0942,2.0939,2.0926,2.0924,2.0912,2.0912,2.0911,2.0917,2.09,2.0911,2.0912,2.0913,2.0935,2.0938,2.0941,0,0,0,0,0,2.0979,2.0988,2.0981,2.098,2.0969,2.0965,2.0964,2.0951,2.0942,2.0946,2.0935,2.0924,2.0917,2.0912,2.0911,2.0917,2.091,2.0912,2.0913,2.0934,2.0938,2.0941,0,0,0,0,0,0,2.1003,2.0986,2.0978,2.0983,2.0976,2.0961,2.0966,2.0955,2.095,2.0948,2.0931,2.0928,2.0931,2.0924,2.0918,2.0924,2.0912,2.0913,2.0929,2.0932,2.0935,2.0936,2.09,0,0,0,0,0,2.1009,2.1008,2.0993,2.0999,2.0996,2.0981,2.0979,2.097,2.0961,2.0958,2.0948,2.094,2.0935,2.0933,2.0928,2.0934,2.093,2.0937,2.094,2.0942,2.0944,2.0945,2.0948,2.0917,2.0917,2.0917,0,0,2.1021,2.1012,2.1013,2.1004,2.0997,2.0996,2.0979,2.0979,2.0977,2.0958,2.0958,2.095,2.0939,2.0942,2.0943,2.0936,2.0951,2.0944,2.0946,2.0946,2.0946,2.0949,2.0952,2.0918,2.0918,2.0918,0,0,2.1044,2.1037,2.1041,2.1034,2.1024,2.1013,2.1014,2.1001,2.0995,2.0995,2.098,2.0977,2.0971,2.0963,2.0959,2.0976,2.0965,2.0975,2.099,2.0991,2.0993,2.0995,2.1001,2.1004,2.0976,2.0976,2.0976,0,2.106,2.1059,2.1044,2.1044,2.104,2.1022,2.1026,2.1019,2.1008,2.1006,2.0998,2.0989,2.0981,2.0981,2.0985,2.0982,2.0982,2.0977,2.0994,2.0996,2.0998,2.1003,2.1005,2.0977,2.0977,2.0977,2.0977,0,2.1079,2.1078,2.1082,2.1072,2.1068,2.107,2.1055,2.1053,2.1043,2.1033,2.1032,2.1021,2.1014,2.1013,2.1003,2.1011,2.1007,2.0997,2.0985,2.1002,2.1007,2.1009,2.0979,2.0979,2.0978,2.0978,0,0,2.1118,2.1098,2.11,2.1094,2.1081,2.1079,2.108,2.1072,2.1071,2.1063,2.1062,2.1056,2.1046,2.1041,2.103,2.1031,2.1045,2.1021,2.102,2.1026,2.1052,2.106,2.1063,2.1037,2.1037,2.1038,2.1053,0,2.1137,2.1138,2.1124,2.1128,2.1126,2.1108,2.1107,2.1099,2.1089,2.1085,2.1074,2.107,2.1058,2.1055,2.1055,2.1043,2.105,2.1042,2.1036,2.1036,2.104,2.1066,2.1074,2.109,2.1055,2.1055,2.1055,0,2.1161,2.1155,2.1159,2.1144,2.1142,2.1143,2.1134,2.1131,2.112,2.1113,2.1106,2.1094,2.1092,2.1079,2.1076,2.1071,2.1067,2.106,2.1061,2.106,2.1047,2.1066,2.1095,2.1097,2.1058,2.1058,2.1058,0,2.1189,2.1181,2.1182,2.1178,2.1161,2.1161,2.1154,2.1142,2.1138,2.113,2.1127,2.1119,2.1115,2.1108,2.1093,2.1085,2.1091,2.1077,2.1084,2.1085,2.1087,2.1087,2.1116,2.1084,2.1084,2.1084,2.1084,0,2.1213,2.1216,2.1194,2.1195,2.1197,2.118,2.1182,2.1173,2.1163,2.116,2.1143,2.1142,2.1121,2.1117,2.1105,2.1103,2.1101,2.1095,2.1092,2.1097,2.1098,2.1095,2.1094,2.1084,2.1084,2.1084,2.1084,0,2.1245,2.123,2.123,2.1213,2.1209,2.1212,2.1197,2.1196,2.1185,2.1182,2.1181,2.1163,2.1156,2.114,2.1129,2.1121,2.1123,2.1117,2.1127,2.1125,2.1133,2.1133,2.1161,2.1164,2.113,2.113,2.113,0,2.1262,2.1263,2.1247,2.1244,2.1238,2.1234,2.123,2.1212,2.1208,2.1195,2.1195,2.1188,2.1181,2.1171,2.1156,2.1148,2.1141,2.1152,2.114,2.1145,2.1142,2.1142,2.1142,2.1155,2.1155,2.1156,2.1156,0,2.1293,2.1285,2.128,2.1272,2.1267,2.126,2.1252,2.125,2.123,2.1226,2.122,2.1214,2.1203,2.1195,2.1184,2.1175,2.1162,2.116,2.1161,2.1167,2.1173,2.1169,2.1135,2.1159,2.1159,2.1159,2.1159,2.1158,2.1318,2.1318,2.1306,2.1301,2.1292,2.1285,2.1283,2.1271,2.1266,2.1256,2.1245,2.1239,2.1226,2.121,2.1202,2.1196,2.1189,2.1191,2.1192,2.1193,2.1195,2.1173,2.1194,2.1194,2.1194,2.1193,2.1193,0,2.1348,2.1339,2.1334,2.1323,2.1318,2.1306,2.1296,2.1293,2.1288,2.1277,2.127,2.1262,2.1254,2.1238,2.1228,2.1227,2.122,2.1225,2.1225,2.1223,2.1201,2.1201,2.123,2.123,2.123,2.123,2.123,2.123,2.1364,2.1364,2.1354,2.135,2.134,2.1335,2.133,2.1322,2.1314,2.1305,2.1299,2.1288,2.1275,2.1264,2.1255,2.1251,2.1248,2.1254,2.1248,2.1228,2.1225,2.1221,2.1222,2.1254,2.1254,2.127,2.127,2.127]}]]